Regional Weather Roundup
Issued by NWS

Home | Current Version | Previous Version | Text Only | Print | Product List | Glossary Off
Versions: 1 2 3 4 5 6 7 8 9 10 11 12 13 14 15 16 17 18 19 20 21 22 23 24 25 26 27 28 29 30 31 32 33 34 35 36 37 38 39 40 41 42 43 44 45 46 47 48 49 50

000
ASUS43 KOAX 241102
RWRNE

WEATHER ROUNDUP FOR NEBRASKA
NATIONAL WEATHER SERVICE OMAHA NE
600 AM CDT SAT SEP 24 2016

NOTES: SATELLITE DATA IS BEING USED TO AUGMENT CLOUD COVER ABOVE
       12000 FEET.
       "FAIR" INDICATES FEW OR NO CLOUDS BELOW 12,000 FEET WITH NO
       SIGNIFICANT WEATHER AND/OR OBSTRUCTIONS TO VISIBILITY.

  * THESE STATIONS DO NOT REPORT WEATHER SUCH AS RAIN...SNOW OR FOG.

NEZ001>004-019>022-054>056-241200-
NEBRASKA PANHANDLE

CITY           SKY/WX    TMP DP  RH WIND       PRES   REMARKS
SCOTTSBLUFF    CLOUDY    46  45  96 W7        29.93F
ALLIANCE       CLOUDY    47  43  86 W13       29.92F
CHADRON        CLOUDY    50  43  77 SW12      29.89S
KIMBALL        PTCLDY    43  39  86 NW5       29.97R
SIDNEY         CLEAR     45  39  79 NW15      29.95S
$$

NEZ057>060-069>072-079>082-241200-
SOUTHWEST NEBRASKA

CITY           SKY/WX    TMP DP  RH WIND       PRES   REMARKS
NORTH PLATTE   CLOUDY    57  49  74 W18       29.87R
IMPERIAL       PTCLDY    52  46  80 NW16      29.92S
LEXINGTON      CLOUDY    68  65  88 S9        29.85R
MCCOOK         CLOUDY    60  52  74 W16       29.87R
OGALLALA       CLEAR     52  45  78 W14G21    29.92F
$$

NEZ005>010-023>029-035>040-094-241200-
NORTH CENTRAL NEBRASKA

CITY           SKY/WX    TMP DP  RH WIND       PRES   REMARKS
VALENTINE      CLOUDY    57  52  83 SW17G25   29.84R
AINSWORTH      CLOUDY    67  63  87 SE12      29.80S
BROKEN BOW     CLOUDY    69  66  90 S8        29.83S
O`NEILL        CLEAR     71  63  75 SE15G21   29.84F
ORD            CLOUDY    69  64  84 SE10      29.82F
THEDFORD       CLOUDY    56  54  90 W17G23    29.86R
$$

NEZ041-046>049-061>064-073>077-083>087-241200-
SOUTH CENTRAL NEBRASKA

CITY           SKY/WX    TMP DP  RH WIND       PRES   REMARKS
GRAND ISLAND   CLOUDY    71  65  81 S14G23    29.88S
AURORA         CLOUDY    70  66  85 SE13      29.89S
HASTINGS       TSTM      70  65  84 S10       29.90R
HEBRON         MOCLDY    72  65  79 SE12      29.91S
HOLDREGE       LGT RAIN  69  66  89 S10G21    29.86R
KEARNEY *      CLOUDY    70  64  83 S15G23    29.85R
YORK           CLOUDY    72  64  78 SE10G16   29.90F
$$

NEZ011>018-030>034-042>045-241200-
NORTHEAST NEBRASKA

CITY           SKY/WX    TMP DP  RH WIND       PRES   REMARKS
NORFOLK        CLEAR     70  62  76 SE16      29.89F
ALBION         CLOUDY    70  64  80 SE10      29.88S
BLAIR          PTCLDY    72  64  76 SE9       29.96S
FREMONT        MOCLDY    71  63  74 SE8       29.93F
TEKAMAH        CLEAR     69  64  84 SE9       29.94S
WAYNE          CLEAR     70  65  82 SE14      29.92S
$$

NEZ050>053-065>068-078-088>093-241200-
SOUTHEAST NEBRASKA

CITY           SKY/WX    TMP DP  RH WIND       PRES   REMARKS
LINCOLN        PTCLDY    72  64  76 SE10      29.93S
OMAHA EPPLEY   PTCLDY    72  63  73 SE10      29.95S
BEATRICE       PTCLDY    73  65  77 SE8       29.94S
FALLS CITY     MOCLDY    69  65  86 SE8       29.97S
NEBRASKA CITY  MOCLDY    69  59  69 S7        29.97S
PLATTSMOUTH    PTCLDY    70  62  75 SE9       29.97S
$$

NEZ044-045-051>053-067-241200-
OMAHA AREA

CITY           SKY/WX    TMP DP  RH WIND       PRES   REMARKS
OMAHA EPPLEY   PTCLDY    72  63  73 SE10      29.95S
BLAIR          PTCLDY    72  64  76 SE9       29.96S
FREMONT        MOCLDY    71  63  74 SE8       29.93F
MILLARD        MOCLDY    72  65  78 SE5       29.95S
OFFUTT AFB     PTCLDY    69  65  85 SE9       29.95S
PLATTSMOUTH    PTCLDY    70  62  75 SE9       29.97S
WAHOO          FAIR      70  63  79 SE8       29.93F
$$




USA.gov is the U.S. government's official web portal to all federal, state and local government web resources and services.